Regional Weather Roundup
Issued by NWS Charleston, WV

Home | Current Version | Previous Version | Graphics & Text | Print | Product List | Glossary On
Versions: 1 2 3 4 5 6 7 8 9 10 11 12 13 14 15 16 17 18 19 20 21 22 23 24 25 26 27 28 29 30 31 32 33 34 35 36 37 38 39 40 41 42 43 44 45 46 47 48 49 50
000
ASUS41 KRLX 142010
RWRRLX
West Virginia Regional Weather Roundup
National Weather Service Charleston WV
300 PM EST THU DEC 14 2017

Note: "fair" indicates few or no clouds below 12,000 feet with no
significant weather and/or obstructions to visibility.

WVZ003-142100-
Northern Panhandle of West Virginia

CITY           SKY/WX    TMP DP  RH WIND       PRES   REMARKS
WHEELING       CLOUDY    25  11  55 W8        29.97R
$$

WVZ009-142100-
Northwest West Virginia

CITY           SKY/WX    TMP DP  RH WIND       PRES   REMARKS
PARKERSBURG    CLOUDY    28  16  60 W8        30.03R
$$

WVZ006-142100-
Western West Virginia

CITY           SKY/WX    TMP DP  RH WIND       PRES   REMARKS
HUNTINGTON     CLOUDY    33  19  56 N7        29.99R
$$

WVZ015-142100-
West Central West Virginia

CITY           SKY/WX    TMP DP  RH WIND       PRES   REMARKS
CHARLESTON     CLOUDY    34  19  54 NW5       29.97R
$$

WVZ022-031-142100-
North Central West Virginia

CITY           SKY/WX    TMP DP  RH WIND       PRES   REMARKS
CLARKSBURG     CLOUDY    30  21  69 NW9       29.95R
MORGANTOWN     LGT SNOW  27  19  72 NW6       29.96R
$$

WVZ025-035-042-045-142100-
Southern West Virginia

CITY           SKY/WX    TMP DP  RH WIND       PRES   REMARKS
BECKLEY        CLOUDY    30  19  63 NW6       29.88R
LOGAN          CLOUDY    32  21  64 CALM      29.93R
BLUEFIELD      CLOUDY    31  21  66 NW8       29.86R
LEWISBURG      CLOUDY    31  20  64 NW6       29.90R
$$

WVZ047-142100-
Northern Mountains of West Virginia

CITY           SKY/WX    TMP DP  RH WIND       PRES   REMARKS
ELKINS         CLOUDY    28  19  69 NW6       29.90R
$$

WVZ052-142100-
Eastern Panhandle of West Virginia

CITY           SKY/WX    TMP DP  RH WIND       PRES   REMARKS
MARTINSBURG    MOSUNNY   36  16  44 NW12      29.93R
PETERSBURG     CLOUDY    33  20  60 W5        29.94R
$$



USA.gov is the U.S. government's official web portal to all federal, state and local government web resources and services.